sat.trackr.live / text

‹ back to catalog

STARLINK-31029

NORAD 58712 · 2024-002H

PAYLOAD ACTIVE UNKNOWN

§ Identity

Operator
Country
US
Launch date
2024-01-03
Launch site
AFWTR
Launch vehicle
Mass (kg)
RCS (m²)

Purposes: comms

External: N2YO · Heavens-Above · Gunter

§ Orbital elements

Epoch: 2026-05-25T05:04:43.307904Z

Period
94.11 min
Inclination
53.1616°
Eccentricity
0.0000563
Mean motion
15.30195720 rev/d
Perigee alt
474.8 km
Apogee alt
475.6 km
Semi-major
6,853.4 km
B*
4.1387e-5
RAAN
234.3260°
Arg perigee
92.2823°
Mean anomaly
267.8242°
Rev number
13,373

§ Raw data

STARLINK-310291 58712U 24002H   26145.21161236  .00000867  00000+0  41387-4 0  99982 58712  53.1616 234.3260 0000563  92.2823 267.8242 15.30195720133738

JSON: /api/v1/satellites/58712 · /tle

For live sub-satellite position, see the globe view (requires WebGL).

§ Visibility from observer

Set your observer location to see the next 7 days of passes ≥ 10°. The values pass through the URL so the page stays shareable.

No JS? Fill the form by hand. The geolocation button needs JavaScript.